Regional Weather Roundup
Issued by NWS Cleveland, OH

Home | Current Version | Previous Version | Text Only | Print | Product List | Glossary On
Versions: 1 2 3 4 5 6 7 8 9 10 11 12 13 14 15 16 17 18 19 20 21 22 23 24 25 26 27 28 29 30 31 32 33 34 35 36 37 38 39 40 41 42 43 44 45 46 47 48 49 50
000
ASUS41 KCLE 211602
RWRCLE
OHIO REGIONAL WEATHER ROUNDUP
NATIONAL WEATHER SERVICE CLEVELAND, OH
1200 PM EDT THU AUG 21 2014

NOTE: "FAIR" INDICATES FEW OR NO CLOUDS BELOW 12,000 FEET WITH NO
SIGNIFICANT WEATHER AND/OR OBSTRUCTIONS TO VISIBILITY.

OHZ001>008-015>018-024>027-034-035-043-044-211700-
   NORTHWEST OHIO

CITY           SKY/WX    TMP DP  RH WIND       PRES   REMARKS
DEFIANCE       CLOUDY    77  68  73 SW7       30.03F
FINDLAY        CLOUDY    78  69  73 SW12      30.03F
TOLEDO EXPRESS NOT AVBL
TOLEDO EXEC    PTSUNNY   78  69  73 W9        30.02S
LIMA           TSTM      71  69  93 SW9       30.07R VSB 1/2
$$

OHZ009>014-019>023-028>033-038-089-211700-
   NORTHEAST OHIO

CITY           SKY/WX    TMP DP  RH WIND       PRES   REMARKS
CLE-HOPKINS    CLOUDY    78  71  79 SW6       30.04S
CLE-LAKEFRONT  MOSUNNY   75  69  81 NW6       30.00S
CUY CO. ARPT   NOT AVBL
LORAIN-ELYRIA  PTSUNNY   80  70  71 SW8       30.03S
ASHTABULA      PTSUNNY   77  65  66 CALM      30.03S
AKRON-CANTON   PTSUNNY   78  68  71 SW6       30.05S
WOOSTER        MOSUNNY   77  69  76 SW7       30.06S
MANSFIELD      PTSUNNY   78  67  68 W6        30.06R
YOUNGSTOWN     CLOUDY    78  69  73 SW8       30.05R
$$

OHZ042-051>053-060>062-070>072-077>081-211700-
  SOUTHWEST OHIO

CITY           SKY/WX    TMP DP  RH WIND       PRES   REMARKS
CINC-COVINGTON CLOUDY    73  70  90 SW8       30.09S
CINC-LUNKEN    CLOUDY    72  71  97 SW6       30.08R FOG
HAMILTON       HVY RAIN  72  71  97 N5        30.10R VSB 3/4
DAYTON         TSTM      72  70  93 SW10      30.11R FOG
WRIGHT-PAT AFB RAIN      72  70  94 SW7       30.11R FOG
DAYTON GENERAL TSTM      72  71  97 W6        30.11R FOG
WILMINGTON     RAIN      70  69  97 S3        30.08F FOG
$$

OHZ036-037-039>041-045>050-054>059-063>069-073>076-082>088-211700-
  CENTRAL AND SOUTHEAST OHIO

CITY           SKY/WX    TMP DP  RH WIND       PRES   REMARKS
COLUMBUS       TSTM      75  67  76 W6        30.09R
OSU AIRPORT    TSTM      71  68  90 W8        30.10R FOG
BOLTON FIELD   CLOUDY    72  70  94 NW6       30.30R
RICKENBACK AFB TSTM      73  66  78 NW3       30.09R
NEWARK         CLOUDY    74  70  87 SW6       30.08R
MARION         LGT RAIN  76  68  76 W15G23    30.08R
LANCASTER      CLOUDY    72  69  90 W5        30.09R
ZANESVILLE     LGT RAIN  70  68  93 SE5       30.06F FOG
NEW PHILLY     CLOUDY    75  70  84 CALM      30.07S
$$



USA.gov is the U.S. government's official web portal to all federal, state and local government web resources and services.